User: anonymous   Login
Location: Unspecified
(0.0000°N, 0.0000°E)
Time: 00:05:07
(UTC+00:00)
Language:

KSM1-B - Orbit

View from above orbital plane
View from above orbital plane
View from above satellite
View from above satellite

Ground track
Ground track

The orbit is defined by the following mean orbital elements,

1 46914U          26145.56704028 +.00000000 +00000-0 +26402-3 0 00004
2 46914  36.9014 207.6799 0004419  91.8355 268.2900 15.24160667    03
Epoch (UTC): 25 May 2026 13:36:32
Eccentricity: 0.0004419
inclination: 36.9014°
perigee height: 490 km
apogee height: 496 km
right ascension of ascending node: 207.6799°
argument of perigee: 91.8355°
revolutions per day: 15.24160667
mean anomaly at epoch: 268.2900°

The dashed part of the orbit path shows where the satellite is in the earth's shadow,  

DLR